Location: Newark
(45.4422°N, 16.2769°E)
Time: 08:39:23
(UTC+00:00)

Vanguard 2 - Pass Details

Date: 10 December 2019
Orbit: 553 x 2938 km, 32.9° (Epoch: 26 January)

Event Time Altitude Azimuth Distance (km) Brightness Sun altitude
Rises 01:32:21 0° 243° (WSW) 6,166 - -49.7°
Reaches altitude 10° 01:36:16 10° 238° (WSW) 5,374 - -49.1°
Exits shadow 01:51:52 51° 173° (S) 3,451 10.5 -46.5°
Maximum altitude 01:52:15 51° 170° (S) 3,449 10.5 -46.4°
Drops below altitude 10° 02:08:06 10° 101° (ESE) 5,336 12.3 -43.7°
Sets 02:11:58 0° 97° (E) 6,122 12.9 -43.0°
